weather.gov     
National Weather Service

Regional Weather Roundup
NWS Homepage
This page is being discontinued on March 12, 2014.
The same data is available at this site. Please update your bookmarks.
Thank you, and we apologize for the inconvenience.
Please send an email to SR-SRH.Webmaster@noaa.gov with any concerns.


Current Version
Previous Version:    01  02  03  04  05  06  07  08  09  10  11  12  13  14  15  16  17  18  19  20  21  22  23  24  25  26  
[Printable]
299
ASGM40 PGUM 300012
RWRGUM
WEATHER ROUNDUP FOR THE MARIANAS
NATIONAL WEATHER SERVICE TIYAN GU
1000 AM CHST WED JUL 30 2014

GUZ001>004-300100-
MARIANA ISLANDS-

CITY           SKY/WX    TMP DP  RH WIND       PRES   REMARKS
GUAM AIRPORT   HVY RAIN  75  75 100 W33G43    29.71F VSB 1/4
ANDERSEN AFB   HVY RAIN  75  75 100 W18G28    29.67F VSB 1/4
ROTA AIRPORT   RAIN      77  75  94 NE32G46   29.54F FOG
TINIAN AP      LGT RAIN  82  81  94 E20G28    29.76R HX  95
SAIPAN AP      CLOUDY    84  75  74 E22G31    29.78R HX  92

$$





U.S. Dept. of Commerce
NOAA National Weather Service
1325 East West Highway
Silver Spring, MD 20910
E-mail: w-nws.webmaster@noaa.gov
Page last modified: May 16, 2007
NATIONAL WEATHER SERVICE: for Safety, for Work, for Fun - FOR LIFE